EHI
0 0 0 0 0 0 0 0 0 0 0 0 0 0 0 0 0 0 0 0 0 0 0 0 0 0 0 1 2 2 2 1 0 0 0 0 0 0 0 0 0 0 0 0
0 0 0 0 0 0 0 0 0 0 0 0 0 0 0 0 0 0 0 0 0 0 0 0 0 0 0 0 1 1 1 1 0 0 0 0 0 0 0 0 0 0 0 0
0 0 0 0 0 0 0 0 0 0 0 0 0 0 0 0 0 0 0 0 0 0 0 0 0 0 0 0 0 0 0 0 0 0 0 0 0 0 0 0 0 0 0 0
0 0 0 0 0 0 0 0 0 0 0 0 0 0 0 0 0 0 0 0 0 0 0 0 0 0 0 0 0 0 0 0 0 0 0 0 0 0 0 0 0 0 0 0
0 0 0 0 0 0 0 0 0 0 0 0 0 0 0 0 0 0 0 0 0 0 0 0 0 0 0 0 0 0 0 0 0 0 0 0 0 0 0 0 0 0 0 0
0 0 0 0 0 0 0 0 0 0 0 0 0 0 0 0 0 0 0 0 0 0 0 0 0 0 0 0 0 0 0 0 0 0 0 0 0 0 0 0 0 0 0 0
0 0 0 0 0 0 0 0 0 0 0 0 0 0 0 0 0 0 0 0 0 0 0 0 0 0 0 0 0 0 0 0 0 0 0 0 0 0 0 0 0 0 0 0
0 0 0 0 0 0 0 0 0 0 0 0 0 0 0 0 0 0 0 0 0 0 0 0 0 0 0 0 0 0 0 0 0 0 0 0 0 0 0 0 0 0 0 0
0 0 0 0 0 0 0 0 0 0 0 0 0 0 0 0 0 0 0 0 0 0 0 0 0 0 0 0 0 0 0 0 0 0 0 0 0 0 0 0 0 0 0 0
0 0 0 0 0 0 0 0 0 0 0 0 0 0 0 0 0 0 0 0 0 0 0 0 0 0 0 0 0 0 0 0 0 0 0 0 0 0 0 0 0 0 0 0
0 0 0 0 0 0 0 0 0 0 0 0 0 0 0 0 0 0 0 0 0 0 0 0 0 0 0 0 0 0 0 0 0 0 0 0 0 0 0 0 0 0 0 0
0 0 0 0 0 0 0 0 0 0 0 0 0 0 0 0 0 0 0 0 0 0 0 0 0 0 0 0 0 0 0 0 0 0 0 0 0 0 0 0 0 0 0 0
0 0 0 0 0 0 0 0 0 0 0 0 0 0 0 0 0 0 0 0 0 0 0 0 0 0 0 0 0 0 0 0 0 0 0 0 0 0 0 0 0 0 0 0
0 0 0 0 0 0 0 0 0 0 0 0 0 0 0 0 0 0 0 0 0 0 0 0 0 0 0 0 0 0 0 0 0 0 0 0 0 0 0 0 0 0 0 0
0 0 0 0 0 0 0 0 0 0 0 0 0 0 0 0 0 0 0 0 0 0 0 0 0 0 0 0 0 0 0 0 0 0 0 0 0 0 0 0 0 0 0 0
0 0 0 0 0 0 0 0 0 0 0 0 0 0 0 0 0 0 0 0 0 0 0 0 0 0 0 0 0 0 0 0 0 0 0 0 0 0 0 0 0 0 0 0
0 0 0 0 0 0 0 0 0 0 0 0 0 0 0 0 0 0 0 0 0 0 0 0 0 0 0 0 0 0 0 0 0 0 0 0 0 0 0 0 0 0 0 0
0 0 0 0 0 0 0 0 0 0 0 0 0 0 0 0 0 0 0 0 0 0 0 0 0 0 0 0 0 0 0 0 0 0 0 0 0 0 0 0 0 0 0 0
0 0 0 0 0 0 0 0 0 0 0 0 0 0 0 0 0 0 0 0 0 0 0 0 0 0 0 0 0 0 0 0 0 0 0 0 0 0 0 0 0 0 0 0
0 0 0 0 0 0 0 0 0 0 0 0 0 0 0 0 0 0 0 0 0 0 0 0 0 0 0 0 0 0 0 0 0 0 0 0 0 0 0 0 0 0 0 0
0 0 0 0 0 0 0 0 0 0 0 0 0 0 0 0 0 0 0 0 0 0 0 0 0 0 0 0 0 0 0 0 0 0 0 0 0 0 0 0 0 0 0 0
0 0 0 0 0 0 0 0 0 0 0 0 0 0 0 0 0 0 0 0 0 0 0 0 0 0 0 0 0 0 0 0 0 0 0 0 0 0 0 0 0 0 0 0
0 0 0 0 0 0 0 0 0 0 0 0 0 0 0 0 0 0 0 0 0 0 0 0 0 0 0 0 0 0 0 0 0 0 0 0 0 0 0 0 0 0 0 0
0 0 0 0 0 0 0 0 0 0 0 0 0 0 0 0 0 0 0 0 0 0 0 0 0 0 0 0 0 0 0 0 0 0 0 0 0 0 0 0 0 0 0 0
0 0 0 0 0 0 0 0 0 0 0 0 0 0 0 0 0 0 0 0 0 0 0 0 0 0 0 0 0 0 0 0 0 0 0 0 0 0 0 0 0 0 0 0
0 0 0 0 0 0 0 0 0 0 0 0 0 0 0 0 0 0 0 0 0 0 0 0 0 0 0 0 0 0 0 0 0 0 0 0 0 0 0 0 0 0 0 0
Wind_Speed
3 2 4 5 6 7 6 7 8 5 1 3 8 11 8 7 7 7 7 7 6 6 5 4 4 4 3 3 3 3 3 2 2 1 1 1 1 1 1 2 2 3 2 2
3 5 5 4 5 6 7 8 8 6 2 4 7 11 10 8 9 7 6 6 6 5 5 5 4 4 4 3 3 3 3 3 2 1 1 1 1 1 1 1 2 2 2 2
5 2 3 5 5 6 7 7 7 6 5 6 6 9 8 5 5 5 4 4 5 6 6 5 5 4 4 3 3 3 3 2 2 2 1 1 1 1 1 1 1 2 2 2
3 3 3 4 5 5 6 3 5 6 5 5 4 6 4 4 4 5 5 5 5 5 5 5 4 4 3 3 3 3 3 2 2 3 2 2 1 2 1 1 1 1 1 1
2 1 2 3 3 3 3 3 4 5 5 6 5 6 7 3 5 6 7 6 5 5 5 5 4 4 3 3 2 2 3 2 2 2 3 2 1 1 1 1 2 2 1 1
4 2 1 2 2 2 2 3 4 4 3 7 7 7 7 4 5 4 5 5 5 5 5 4 4 3 3 3 2 2 2 2 2 2 2 2 2 2 2 2 2 2 1 1
5 5 3 2 2 2 2 1 2 2 4 7 4 6 7 1 1 2 4 4 4 5 5 4 4 3 3 3 2 2 2 2 2 2 2 1 2 2 2 3 2 2 1 1
4 4 5 4 3 3 5 3 3 4 4 4 3 7 4 2 3 3 3 3 4 3 4 4 4 3 3 3 3 2 2 2 2 2 2 2 1 1 1 1 2 2 2 1
3 2 2 2 1 2 3 4 2 3 4 5 6 4 3 3 3 3 2 3 3 3 3 3 3 3 3 3 3 3 3 2 2 2 2 2 2 1 1 1 1 1 1 1
2 3 1 1 1 3 2 1 1 3 4 6 6 6 4 4 5 4 3 3 2 2 2 2 2 2 2 3 2 2 2 2 2 2 2 1 1 1 1 1 1 1 1 1
2 3 2 2 6 6 4 3 4 4 4 4 5 5 0 2 3 4 3 3 2 2 2 2 2 2 2 2 2 2 2 2 1 1 1 1 1 1 1 1 1 1 1 2
2 2 4 5 1 1 4 5 5 5 6 5 5 8 1 2 2 2 2 1 1 2 2 1 1 1 1 1 2 2 2 2 1 1 1 1 1 1 1 1 1 1 2 2
3 2 3 2 1 1 3 4 5 4 3 5 6 8 1 2 2 1 1 1 1 1 1 1 1 1 1 1 1 1 1 1 1 1 1 1 1 1 1 1 1 2 2 2
2 4 7 7 4 2 4 5 6 6 6 7 11 11 6 3 2 2 2 2 1 2 2 2 2 1 2 1 1 1 1 1 1 1 1 2 2 2 2 1 1 2 2 2
3 5 7 9 8 6 8 9 9 12 11 10 11 10 10 5 4 3 2 2 2 1 1 2 2 2 1 1 1 1 1 1 1 2 2 2 2 1 1 1 1 2 2 2
3 4 4 8 8 8 11 12 12 13 12 13 13 14 8 4 2 2 2 2 2 3 3 3 2 2 1 1 1 1 1 1 1 2 2 2 1 1 1 1 1 2 1 2
4 4 3 6 3 5 11 11 11 9 8 7 13 12 3 2 3 3 3 2 3 3 3 2 2 2 2 2 1 2 1 1 1 1 1 1 1 2 1 1 1 2 2 2
5 4 3 4 2 10 8 1 5 7 7 7 6 4 3 3 2 2 2 2 3 3 2 2 1 1 1 1 1 0 0 0 1 1 1 1 1 2 1 1 2 2 2 2
4 5 4 4 6 10 5 1 2 4 6 4 6 4 4 3 3 3 2 1 2 2 1 1 1 1 1 0 1 1 0 0 1 1 1 1 2 2 2 2 2 2 2 2
2 3 4 5 6 8 4 1 0 2 5 2 2 3 3 1 2 4 1 1 2 2 1 1 1 1 1 0 1 1 1 1 1 1 2 2 2 2 2 2 2 2 2 2
3 4 7 8 8 8 2 1 1 3 6 2 1 3 3 3 4 1 2 2 2 2 2 2 1 1 1 1 1 1 1 1 2 2 2 2 2 2 2 2 2 2 2 2
7 6 6 5 7 9 1 3 4 4 2 2 2 2 1 2 0 1 2 2 2 2 2 2 1 1 1 1 1 0 1 1 2 2 2 2 2 2 2 1 1 1 2 2
6 6 4 7 7 1 3 3 2 1 1 2 2 2 0 1 1 0 1 1 1 1 1 1 1 1 2 1 1 0 1 1 1 2 2 2 2 2 2 1 1 1 1 2
3 1 3 4 5 2 2 1 1 2 2 2 2 1 1 1 1 1 0 0 1 1 1 1 1 1 1 1 1 1 1 1 1 1 2 2 2 2 2 2 2 1 1 2
2 2 3 5 3 2 2 2 2 2 2 2 2 1 0 1 1 0 0 0 0 1 1 1 1 1 1 2 2 2 1 1 1 1 2 2 2 2 2 2 2 2 2 3
2 4 5 5 3 3 3 2 2 1 1 1 1 2 1 0 1 0 0 1 1 1 1 1 1 1 1 1 2 2 1 1 1 2 2 2 2 2 2 2 3 4 5 6
Wind_Direction
180 219 227 233 230 257 286 284 280 282 188 226 246 259 254 220 216 218 205 195 193 191 172 161 155 152 146 138 141 145 138 131 124 128 149 144 128 94 79 75 73 68 63 66
208 236 247 265 266 255 267 275 279 286 249 257 264 266 259 232 216 213 205 195 195 188 172 169 162 159 161 162 163 156 147 147 144 146 164 158 138 124 113 96 83 74 72 73
230 257 268 249 261 264 256 257 271 284 298 262 279 280 249 235 205 201 208 198 191 190 185 178 172 171 166 167 174 168 160 156 158 141 121 94 101 107 98 107 98 78 75 79
251 261 273 262 256 262 268 286 281 281 284 267 232 281 257 215 200 200 204 206 193 183 177 176 174 168 170 172 167 166 160 160 163 148 151 155 173 178 184 172 147 112 98 94
241 256 260 255 260 263 278 334 288 272 267 277 241 254 267 217 223 214 199 195 185 172 171 173 171 166 164 157 155 160 152 156 164 165 175 185 176 187 156 147 149 143 135 129
249 254 268 273 268 245 300 294 268 250 251 257 223 218 268 227 221 198 179 185 182 168 166 163 155 144 143 143 146 154 162 167 164 168 181 184 184 188 167 167 178 174 163 163
240 213 199 239 242 207 229 255 289 241 222 241 199 211 247 203 106 147 168 174 170 162 160 156 154 156 153 152 152 155 164 175 170 172 179 194 197 190 186 181 187 187 186 196
262 244 183 195 209 210 218 209 217 246 257 281 223 229 239 131 95 87 98 132 143 145 152 154 156 163 164 165 161 159 170 177 177 177 187 193 200 193 197 201 186 191 196 198
271 257 122 168 229 217 206 221 242 278 285 276 254 239 233 161 153 159 150 141 147 147 145 146 147 158 169 172 174 179 173 175 182 186 184 189 188 175 202 233 229 194 187 191
300 279 214 145 215 248 250 272 198 212 249 261 264 245 235 201 208 195 182 180 175 153 146 146 156 169 172 169 169 166 165 181 188 188 192 191 185 182 195 198 244 231 194 191
261 250 235 206 210 206 193 215 220 231 236 244 268 261 354 164 171 180 191 186 185 189 192 169 169 173 160 150 158 163 171 173 184 198 202 186 192 196 183 196 230 252 225 193
202 251 253 231 209 261 214 214 199 216 239 230 254 266 33 66 104 139 166 174 184 190 190 172 165 152 144 159 170 176 178 180 195 197 197 193 195 191 185 206 235 252 255 219
167 202 268 265 251 235 240 232 229 241 261 238 239 257 82 50 25 33 103 136 170 170 172 179 167 186 200 202 196 194 190 196 193 193 196 198 200 198 206 219 240 247 258 248
206 222 221 239 260 203 235 235 225 219 231 245 241 257 272 267 264 266 243 206 210 200 194 206 206 213 211 206 195 195 196 193 184 194 208 220 220 215 217 224 234 244 255 250
206 242 245 261 272 261 247 240 221 222 229 238 254 257 269 250 242 243 234 221 213 220 228 228 226 217 211 204 205 202 204 194 188 200 217 235 237 226 220 224 235 241 255 261
214 247 263 264 255 256 260 249 235 234 239 246 260 268 274 285 287 268 236 225 235 245 240 237 218 204 207 213 219 227 220 208 198 213 229 243 245 240 228 228 238 245 254 259
207 211 236 261 268 294 262 238 223 225 224 219 240 253 283 286 267 249 245 237 235 245 251 237 218 210 217 223 209 220 221 201 211 235 245 254 255 258 252 248 247 252 248 246
204 212 233 266 284 248 245 192 193 216 240 230 245 275 288 270 265 264 271 246 257 249 248 253 220 205 209 220 199 157 123 187 222 246 273 289 281 275 269 247 247 255 254 242
215 205 228 238 251 264 267 217 174 207 262 243 241 272 301 316 320 293 312 286 261 256 203 195 213 188 144 157 132 108 65 340 259 273 299 307 299 287 278 268 262 253 252 254
226 211 223 230 244 251 253 151 347 120 268 284 223 252 273 329 278 265 314 34 38 50 87 100 84 82 103 111 107 98 36 347 312 310 307 301 291 275 273 266 262 250 252 258
180 207 219 231 244 257 260 232 128 186 255 321 265 251 245 230 237 266 49 57 60 59 64 86 89 70 36 51 85 72 7 321 319 327 326 312 299 283 275 266 254 245 261 265
186 194 206 211 231 249 154 131 187 230 320 344 327 308 271 250 230 67 61 62 67 62 56 62 74 44 18 38 86 58 325 333 345 340 329 322 322 312 305 288 260 243 242 252
202 201 198 204 220 225 151 176 220 331 306 316 322 322 276 236 194 90 72 78 90 82 64 53 70 39 14 27 71 65 329 351 351 342 332 329 329 322 314 291 263 249 232 243
216 232 226 248 251 250 221 236 312 315 298 313 310 298 268 217 213 232 217 75 90 67 59 59 54 32 359 14 25 12 346 7 9 344 328 324 326 321 320 309 294 276 253 250
228 193 229 248 272 309 274 283 293 322 344 350 353 360 219 195 243 237 291 9 85 50 40 46 30 357 343 359 356 354 5 15 1 330 315 314 315 316 314 306 287 278 256 255
197 196 209 235 229 235 262 298 323 332 330 332 347 353 2 56 230 20 3 19 46 25 23 19 11 355 345 352 346 348 358 10 343 311 310 306 307 308 310 310 312 301 292 291